• In Hungary
  • List of Countries
  • For 7 days
  • Water Temperature
  • Satellite Maps
  • Weather Map
  • News
  • Weather Widgets
  • user-avatar
    Login

    Hourly Weather Borovaya

    Today, 23 September, Sunday

    Time Temperature Precipitation Wind Pressure Humidity
    00:00 +19°C° 0 mm 4 mps 747 mmHg 45%
    01:00 +19°C° 0 mm 4 mps 747 mmHg 48%
    02:00 +19°C° 0 mm 3 mps 746 mmHg 54%
    03:00 +18°C° 0 mm 3 mps 746 mmHg 57%
    04:00 +18°C° 0 mm 4 mps 746 mmHg 60%
    05:00 +17°C° 0 mm 4 mps 746 mmHg 63%
    06:00 +17°C° 0.1 mm 4 mps 746 mmHg 65%
    07:00 +17°C° 0.1 mm 4 mps 746 mmHg 67%
    08:00 +16°C° 0 mm 5 mps 746 mmHg 69%
    09:00 +15°C° 1.2 mm 5 mps 747 mmHg 73%
    10:00 +14°C° 1.2 mm 5 mps 747 mmHg 77%
    11:00 +13°C° 1.2 mm 5 mps 748 mmHg 81%
    12:00 +13°C° 0.8 mm 5 mps 748 mmHg 78%
    13:00 +13°C° 0.8 mm 4 mps 748 mmHg 75%
    14:00 +13°C° 0.8 mm 4 mps 748 mmHg 72%
    15:00 +13°C° 0 mm 3 mps 748 mmHg 69%
    16:00 +13°C° 0 mm 3 mps 748 mmHg 66%
    17:00 +15°C° 0 mm 2 mps 748 mmHg 63%
    18:00 +14°C° 0 mm 2 mps 748 mmHg 66%
    19:00 +13°C° 0 mm 2 mps 749 mmHg 68%
    20:00 +12°C° 0 mm 2 mps 749 mmHg 70%
    21:00 +12°C° 0 mm 2 mps 749 mmHg 72%
    22:00 +12°C° 0 mm 2 mps 749 mmHg 73%
    23:00 +10°C° 0 mm 2 mps 749 mmHg 74%

    Tomorrow, 24 September, Monday

    Time Temperature Precipitation Wind Pressure Humidity
    00:00 +10°C° 0 mm 2 mps 750 mmHg 75%
    01:00 +10°C° 0 mm 2 mps 750 mmHg 77%
    02:00 +10°C° 0 mm 2 mps 750 mmHg 78%
    03:00 +9°C° 0 mm 2 mps 749 mmHg 79%
    04:00 +9°C° 0 mm 2 mps 749 mmHg 79%
    05:00 +9°C° 0 mm 2 mps 748 mmHg 80%
    06:00 +10°C° 0 mm 3 mps 748 mmHg 74%
    07:00 +12°C° 0 mm 4 mps 748 mmHg 67%
    08:00 +14°C° 0 mm 5 mps 748 mmHg 61%
    09:00 +15°C° 0 mm 6 mps 747 mmHg 55%
    10:00 +16°C° 0 mm 7 mps 747 mmHg 50%
    11:00 +18°C° 0 mm 7 mps 747 mmHg 44%
    12:00 +18°C° 0 mm 8 mps 746 mmHg 43%
    13:00 +20°C° 0 mm 8 mps 745 mmHg 41%
    14:00 +20°C° 0 mm 8 mps 744 mmHg 40%
    15:00 +20°C° 0.1 mm 8 mps 743 mmHg 43%
    16:00 +20°C° 0.1 mm 7 mps 742 mmHg 46%
    17:00 +18°C° 0.1 mm 7 mps 741 mmHg 48%
    18:00 +17°C° 1 mm 7 mps 741 mmHg 57%
    19:00 +16°C° 1 mm 7 mps 741 mmHg 65%
    20:00 +15°C° 1 mm 7 mps 741 mmHg 73%
    21:00 +14°C° 1.5 mm 7 mps 742 mmHg 76%
    22:00 +11°C° 1.5 mm 7 mps 742 mmHg 79%
    23:00 +10°C° 1.5 mm 7 mps 742 mmHg 83%

    Day after tomorrow, 25 September, Tuesday

    Time Temperature Precipitation Wind Pressure Humidity
    00:00 +10°C° 0.4 mm 6 mps 742 mmHg 82%
    01:00 +9°C° 0.4 mm 6 mps 743 mmHg 80%
    02:00 +9°C° 0.4 mm 6 mps 743 mmHg 79%
    03:00 +9°C° 0 mm 5 mps 743 mmHg 81%
    04:00 +8°C° 0 mm 5 mps 744 mmHg 83%
    05:00 +8°C° 0 mm 5 mps 744 mmHg 85%
    06:00 +8°C° 0 mm 5 mps 744 mmHg 82%
    07:00 +9°C° 0 mm 5 mps 745 mmHg 79%
    08:00 +9°C° 0 mm 6 mps 745 mmHg 76%
    09:00 +10°C° 0 mm 6 mps 745 mmHg 72%
    10:00 +11°C° 0 mm 6 mps 745 mmHg 69%
    11:00 +11°C° 0 mm 6 mps 746 mmHg 65%
    12:00 +11°C° 0.1 mm 6 mps 746 mmHg 65%
    13:00 +11°C° 0.1 mm 6 mps 746 mmHg 65%
    14:00 +11°C° 0.1 mm 6 mps 747 mmHg 65%
    15:00 +10°C° 0.2 mm 5 mps 747 mmHg 66%
    16:00 +10°C° 0.2 mm 5 mps 748 mmHg 67%
    17:00 +10°C° 0.2 mm 4 mps 748 mmHg 68%
    18:00 +10°C° 0.1 mm 4 mps 749 mmHg 70%
    19:00 +9°C° 0.1 mm 3 mps 750 mmHg 71%
    20:00 +8°C° 0.1 mm 3 mps 750 mmHg 72%
    21:00 +8°C° 0 mm 3 mps 751 mmHg 73%
    22:00 +7°C° 0 mm 2 mps 751 mmHg 75%
    23:00 +6°C° 0 mm 2 mps 751 mmHg 77%

    26 September, Wednesday

    Time Temperature Precipitation Wind Pressure Humidity
    00:00 +6°C° 0 mm 2 mps 752 mmHg 78%
    01:00 +5°C° 0 mm 2 mps 752 mmHg 79%
    02:00 +5°C° 0 mm 2 mps 753 mmHg 81%
    03:00 +4°C° 0 mm 3 mps 753 mmHg 82%
    04:00 +3°C° 0 mm 3 mps 753 mmHg 83%
    05:00 +3°C° 0 mm 3 mps 754 mmHg 84%
    06:00 +4°C° 0 mm 3 mps 754 mmHg 79%
    07:00 +5°C° 0 mm 3 mps 755 mmHg 74%
    08:00 +7°C° 0 mm 3 mps 755 mmHg 69%
    09:00 +7°C° 0.1 mm 4 mps 755 mmHg 64%
    10:00 +8°C° 0.1 mm 4 mps 756 mmHg 59%
    11:00 +10°C° 0.1 mm 4 mps 756 mmHg 53%
    12:00 +11°C° 0.2 mm 4 mps 756 mmHg 52%
    13:00 +11°C° 0.2 mm 4 mps 756 mmHg 50%
    14:00 +11°C° 0.2 mm 4 mps 756 mmHg 48%
    15:00 +11°C° 0 mm 4 mps 756 mmHg 50%
    16:00 +10°C° 0 mm 3 mps 756 mmHg 52%
    17:00 +9°C° 0 mm 3 mps 757 mmHg 53%
    18:00 +8°C° 0 mm 3 mps 757 mmHg 55%
    19:00 +7°C° 0 mm 2 mps 757 mmHg 57%
    20:00 +6°C° 0 mm 2 mps 758 mmHg 59%
    21:00 +6°C° 0 mm 2 mps 758 mmHg 60%
    22:00 +6°C° 0 mm 2 mps 758 mmHg 61%
    23:00 +5°C° 0 mm 2 mps 758 mmHg 62%

    27 September, Thursday

    Time Temperature Precipitation Wind Pressure Humidity
    00:00 +5°C° 0 mm 2 mps 757 mmHg 63%
    01:00 +5°C° 0 mm 2 mps 757 mmHg 64%
    02:00 +4°C° 0 mm 2 mps 757 mmHg 65%
    03:00 +3°C° 0 mm 3 mps 757 mmHg 66%
    04:00 +3°C° 0 mm 3 mps 757 mmHg 68%
    05:00 +3°C° 0 mm 3 mps 756 mmHg 69%
    06:00 +4°C° 0 mm 4 mps 756 mmHg 64%
    07:00 +6°C° 0 mm 5 mps 756 mmHg 60%
    08:00 +7°C° 0 mm 6 mps 756 mmHg 55%
    09:00 +9°C° 0 mm 6 mps 755 mmHg 51%
    10:00 +10°C° 0 mm 7 mps 755 mmHg 46%
    11:00 +11°C° 0 mm 8 mps 754 mmHg 41%
    12:00 +12°C° 0 mm 8 mps 754 mmHg 40%
    13:00 +12°C° 0 mm 8 mps 753 mmHg 39%
    14:00 +13°C° 0 mm 8 mps 752 mmHg 38%
    15:00 +12°C° 0 mm 7 mps 752 mmHg 41%
    16:00 +13°C° 0 mm 6 mps 752 mmHg 45%
    17:00 +12°C° 0 mm 5 mps 752 mmHg 48%
    18:00 +12°C° 0 mm 5 mps 752 mmHg 51%
    19:00 +11°C° 0 mm 4 mps 752 mmHg 54%
    20:00 +11°C° 0 mm 4 mps 752 mmHg 57%
    21:00 +11°C° 0 mm 4 mps 752 mmHg 60%
    22:00 +10°C° 0 mm 4 mps 752 mmHg 63%
    23:00 +10°C° 0 mm 3 mps 752 mmHg 66%

    28 September, Friday

    Time Temperature Precipitation Wind Pressure Humidity
    00:00 +9°C° 0 mm 3 mps 752 mmHg 69%
    01:00 +9°C° 0 mm 3 mps 752 mmHg 73%
    02:00 +9°C° 0 mm 3 mps 752 mmHg 76%
    03:00 +8°C° 0 mm 3 mps 751 mmHg 80%
    04:00 +8°C° 0 mm 3 mps 751 mmHg 85%
    05:00 +8°C° 0 mm 3 mps 751 mmHg 89%
    06:00 +9°C° 0 mm 3 mps 751 mmHg 85%
    07:00 +10°C° 0 mm 3 mps 751 mmHg 82%
    08:00 +11°C° 0 mm 3 mps 751 mmHg 78%
    09:00 +13°C° 0 mm 4 mps 751 mmHg 72%
    10:00 +15°C° 0 mm 4 mps 751 mmHg 66%
    11:00 +18°C° 0 mm 4 mps 751 mmHg 60%
    12:00 +18°C° 0 mm 4 mps 750 mmHg 59%
    13:00 +19°C° 0 mm 5 mps 750 mmHg 57%
    14:00 +20°C° 0 mm 5 mps 749 mmHg 55%
    15:00 +19°C° 0 mm 4 mps 749 mmHg 59%
    16:00 +18°C° 0 mm 4 mps 749 mmHg 62%
    17:00 +17°C° 0 mm 3 mps 749 mmHg 66%
    18:00 +16°C° 0 mm 3 mps 749 mmHg 71%
    19:00 +14°C° 0 mm 3 mps 749 mmHg 75%
    20:00 +14°C° 0 mm 2 mps 749 mmHg 80%
    21:00 +13°C° 0 mm 3 mps 749 mmHg 82%
    22:00 +13°C° 0 mm 3 mps 749 mmHg 84%
    23:00 +12°C° 0 mm 3 mps 749 mmHg 87%
    Show more